Terug naar catalogus

QIANFAN-143

ActiefCommunicatiePO
NORAD 69089·PAYLOAD·🇨🇳 China

Gelanceerd May 12, 2026 vanaf Taiyuan Satellite Launch Center

Loading…

Volgende Passages (komende 24 uur)

TLE

VersSource: Space-Track

Epoch: Sep 14, 2026, 14:10 UTC

1 69089U 26104S   26257.59088379  .00000101  00000-0  13797-3 0  9998
2 69089  88.9914 332.3235 0001981 106.1926 253.9443 13.51026711 17249

Volg QIANFAN-143 in realtime met AllMySat

Download on the App Store